| time (UTC) | temp F | wind direction | speed MPH | gust MPH | rain 1hr in | rain 24hr in | rain mn in | humidity % | barometer mb |
| 20260901224503 | 62 | 173 | 6.0 | 10.0 | 0.01 | 0.05 | 0.05 | 88 | 1017.2 |
| 20260901223603 | 61 | 172 | 6.0 | 9.0 | 0.01 | 0.05 | 0.05 | 87 | 1017.2 |
| 20260901222703 | 61 | 168 | 4.0 | 7.0 | 0.01 | 0.05 | 0.05 | 87 | 1017.2 |
| 20260901221803 | 61 | 178 | 4.0 | 7.0 | 0.02 | 0.05 | 0.05 | 87 | 1017.2 |
| 20260901220903 | 61 | 178 | 4.0 | 9.0 | 0.01 | 0.04 | 0.04 | 86 | 1017.3 |
| 20260901220003 | 61 | 183 | 6.0 | 15.0 | 0.01 | 0.04 | 0.04 | 86 | 1017.4 |
| 20260901215403 | 62 | 180 | 9.0 | 15.0 | 0.01 | 0.04 | 0.04 | 85 | 1017.5 |
| 20260901214503 | 62 | 174 | 8.0 | 14.0 | 0.01 | 0.04 | 0.04 | 87 | 1017.4 |
| 20260901213603 | 62 | 175 | 8.0 | 14.0 | 0.01 | 0.04 | 0.04 | 87 | 1017.4 |
| 20260901212703 | 62 | 174 | 9.0 | 14.0 | 0.01 | 0.04 | 0.04 | 87 | 1017.5 |
| 20260901211803 | 62 | 167 | 8.0 | 13.0 | 0.00 | 0.03 | 0.03 | 87 | 1017.6 |
| 20260901210903 | 62 | 161 | 7.0 | 11.0 | 0.00 | 0.03 | 0.03 | 87 | 1017.7 |
| 20260901210003 | 62 | 159 | 6.0 | 10.0 | 0.00 | 0.03 | 0.03 | 87 | 1017.7 |
| 20260901205403 | 61 | 156 | 6.0 | 10.0 | 0.00 | 0.03 | 0.03 | 86 | 1017.5 |
| 20260901204503 | 61 | 151 | 6.0 | 9.0 | 0.00 | 0.03 | 0.03 | 86 | 1017.7 |
| 20260901203603 | 61 | 154 | 5.0 | 8.0 | 0.00 | 0.03 | 0.03 | 85 | 1017.8 |
| 20260901202703 | 61 | 164 | 4.0 | 7.0 | 0.00 | 0.03 | 0.03 | 84 | 1017.8 |
| 20260901201803 | 61 | 156 | 5.0 | 8.0 | 0.00 | 0.03 | 0.03 | 84 | 1017.8 |
| 20260901200903 | 61 | 158 | 5.0 | 9.0 | 0.00 | 0.03 | 0.03 | 84 | 1017.8 |
| 20260901200003 | 61 | 159 | 5.0 | 7.0 | 0.00 | 0.03 | 0.03 | 84 | 1017.9 |
| 20260901195403 | 61 | 157 | 5.0 | 7.0 | 0.00 | 0.03 | 0.03 | 84 | 1017.8 |
| 20260901194503 | 61 | 162 | 4.0 | 6.0 | 0.00 | 0.03 | 0.03 | 84 | 1018.1 |
| 20260901193603 | 61 | 171 | 3.0 | 6.0 | 0.00 | 0.03 | 0.03 | 83 | 1018.0 |
| 20260901192703 | 61 | 188 | 3.0 | 5.0 | 0.00 | 0.03 | 0.03 | 83 | 1018.1 |
| 20260901191803 | 61 | 239 | 0.0 | 3.0 | 0.00 | 0.03 | 0.03 | 82 | 1018.1 |
| 20260901190903 | 61 | 241 | 1.0 | 4.0 | 0.00 | 0.03 | 0.03 | 82 | 1018.2 |
| 20260901190003 | 61 | 253 | 2.0 | 5.0 | 0.00 | 0.03 | 0.03 | 82 | 1018.1 |
| 20260901185403 | 61 | 246 | 3.0 | 6.0 | 0.00 | 0.03 | 0.03 | 82 | 1018.1 |
| 20260901184503 | 61 | 251 | 3.0 | 7.0 | 0.00 | 0.03 | 0.03 | 82 | 1018.1 |
| 20260901183603 | 62 | 248 | 3.0 | 7.0 | 0.00 | 0.03 | 0.03 | 82 | 1018.1 |
| 20260901182703 | 62 | 242 | 4.0 | 11.0 | 0.00 | 0.03 | 0.03 | 82 | 1018.2 |
| 20260901181803 | 62 | 238 | 5.0 | 12.0 | 0.00 | 0.03 | 0.03 | 82 | 1018.1 |
| 20260901180903 | 62 | 231 | 3.0 | 11.0 | 0.00 | 0.03 | 0.03 | 82 | 1018.2 |
| 20260901180003 | 62 | 210 | 4.0 | 8.0 | 0.00 | 0.03 | 0.03 | 82 | 1018.1 |
| 20260901175403 | 63 | 208 | 4.0 | 9.0 | 0.00 | 0.03 | 0.03 | 82 | 1018.1 |
| 20260901174503 | 63 | 228 | 4.0 | 11.0 | 0.00 | 0.03 | 0.03 | 81 | 1018.1 |
| 20260901173603 | 63 | 231 | 3.0 | 8.0 | 0.00 | 0.03 | 0.03 | 81 | 1018.2 |
| 20260901172703 | 64 | 228 | 3.0 | 9.0 | 0.00 | 0.03 | 0.03 | 80 | 1018.2 |
| 20260901171803 | 64 | 235 | 5.0 | 11.0 | 0.00 | 0.03 | 0.03 | 80 | 1018.3 |
| 20260901170903 | 64 | 240 | 3.0 | 12.0 | 0.00 | 0.03 | 0.03 | 80 | 1018.4 |
| 20260901170003 | 64 | 241 | 6.0 | 12.0 | 0.00 | 0.03 | 0.03 | 79 | 1018.3 |
| 20260901165403 | 64 | 230 | 5.0 | 12.0 | 0.00 | 0.03 | 0.03 | 80 | 1018.3 |
| 20260901164503 | 64 | 231 | 4.0 | 10.0 | 0.00 | 0.03 | 0.03 | 80 | 1018.4 |
| 20260901163603 | 64 | 234 | 4.0 | 12.0 | 0.00 | 0.03 | 0.03 | 79 | 1018.5 |
| 20260901162703 | 64 | 234 | 3.0 | 9.0 | 0.00 | 0.03 | 0.03 | 79 | 1018.6 |
| 20260901161803 | 64 | 237 | 4.0 | 12.0 | 0.00 | 0.03 | 0.03 | 79 | 1018.6 |
| 20260901160903 | 64 | 243 | 5.0 | 12.0 | 0.00 | 0.03 | 0.03 | 79 | 1018.7 |
| 20260901160003 | 64 | 239 | 5.0 | 11.0 | 0.00 | 0.03 | 0.03 | 79 | 1018.7 |
| 20260901155403 | 64 | 246 | 5.0 | 13.0 | 0.00 | 0.03 | 0.03 | 79 | 1018.6 |
| 20260901154503 | 64 | 229 | 4.0 | 14.0 | 0.00 | 0.03 | 0.03 | 80 | 1018.7 |
| 20260901153603 | 64 | 227 | 5.0 | 10.0 | 0.00 | 0.03 | 0.03 | 80 | 1018.6 |
| 20260901152703 | 64 | 220 | 4.0 | 11.0 | 0.00 | 0.03 | 0.03 | 81 | 1018.7 |
| 20260901151803 | 64 | 230 | 3.0 | 10.0 | 0.00 | 0.03 | 0.03 | 81 | 1018.7 |
| 20260901150903 | 63 | 246 | 3.0 | 6.0 | 0.00 | 0.03 | 0.03 | 81 | 1019.0 |
| 20260901150003 | 63 | 256 | 3.0 | 7.0 | 0.00 | 0.03 | 0.03 | 80 | 1018.9 |
| 20260901145403 | 63 | 259 | 3.0 | 7.0 | 0.00 | 0.03 | 0.03 | 80 | 1019.0 |
| 20260901144503 | 63 | 252 | 5.0 | 11.0 | 0.00 | 0.03 | 0.03 | 80 | 1019.1 |
| 20260901143603 | 63 | 253 | 5.0 | 12.0 | 0.00 | 0.03 | 0.03 | 82 | 1019.2 |
| 20260901142703 | 63 | 251 | 6.0 | 12.0 | 0.00 | 0.03 | 0.03 | 81 | 1019.2 |
| 20260901141803 | 64 | 249 | 6.0 | 15.0 | 0.02 | 0.03 | 0.03 | 82 | 1019.2 |
| 20260901140903 | 64 | 239 | 5.0 | 10.0 | 0.02 | 0.03 | 0.03 | 83 | 1019.1 |
| 20260901140003 | 64 | 239 | 4.0 | 11.0 | 0.02 | 0.03 | 0.03 | 84 | 1019.1 |
| 20260901135403 | 64 | 244 | 5.0 | 10.0 | 0.02 | 0.03 | 0.03 | 84 | 1019.0 |
| 20260901134503 | 64 | 247 | 4.0 | 9.0 | 0.02 | 0.03 | 0.03 | 83 | 1019.0 |
| 20260901133603 | 64 | 253 | 4.0 | 11.0 | 0.02 | 0.03 | 0.03 | 83 | 1019.1 |
| 20260901132703 | 64 | 252 | 5.0 | 11.0 | 0.02 | 0.03 | 0.03 | 81 | 1019.0 |
| 20260901131803 | 65 | 254 | 3.0 | 9.0 | 0.00 | 0.01 | 0.01 | 80 | 1019.1 |
| 20260901130903 | 65 | 257 | 4.0 | 10.0 | 0.00 | 0.01 | 0.01 | 79 | 1019.2 |
| 20260901130003 | 66 | 251 | 5.0 | 10.0 | 0.00 | 0.01 | 0.01 | 78 | 1019.3 |
| 20260901125403 | 66 | 263 | 5.0 | 13.0 | 0.00 | 0.01 | 0.01 | 77 | 1019.3 |
| 20260901124503 | 67 | 246 | 5.0 | 11.0 | 0.00 | 0.01 | 0.01 | 75 | 1019.4 |
| 20260901123603 | 67 | 233 | 6.0 | 13.0 | 0.00 | 0.01 | 0.01 | 78 | 1019.2 |
| 20260901122703 | 66 | 241 | 6.0 | 13.0 | 0.00 | 0.01 | 0.01 | 77 | 1019.2 |
| 20260901121803 | 66 | 241 | 6.0 | 18.0 | 0.00 | 0.01 | 0.01 | 78 | 1019.2 |
| 20260901120903 | 66 | 238 | 7.0 | 16.0 | 0.00 | 0.01 | 0.01 | 80 | 1019.1 |
| 20260901120003 | 66 | 220 | 5.0 | 12.0 | 0.00 | 0.01 | 0.01 | 82 | 1019.1 |
| 20260901115403 | 66 | 201 | 4.0 | 9.0 | 0.00 | 0.01 | 0.01 | 83 | 1019.0 |
| 20260901114503 | 65 | 186 | 4.0 | 9.0 | 0.01 | 0.01 | 0.01 | 83 | 1018.9 |
| 20260901113603 | 64 | 183 | 4.0 | 9.0 | 0.01 | 0.01 | 0.01 | 83 | 1018.9 |
| 20260901112703 | 64 | 208 | 4.0 | 8.0 | 0.01 | 0.01 | 0.01 | 83 | 1018.9 |
| 20260901111803 | 64 | 213 | 4.0 | 9.0 | 0.01 | 0.01 | 0.01 | 83 | 1019.0 |
| 20260901110903 | 64 | 230 | 5.0 | 11.0 | 0.01 | 0.01 | 0.01 | 82 | 1019.1 |
| 20260901110003 | 64 | 240 | 4.0 | 10.0 | 0.01 | 0.01 | 0.01 | 81 | 1019.1 |
| 20260901105403 | 64 | 240 | 5.0 | 12.0 | 0.01 | 0.01 | 0.01 | 80 | 1019.2 |
| 20260901104503 | 65 | 244 | 8.0 | 15.0 | 0.00 | 0.00 | 0.00 | 78 | 1019.3 |
| 20260901103603 | 66 | 237 | 6.0 | 13.0 | 0.00 | 0.00 | 0.00 | 77 | 1019.1 |
| 20260901102703 | 66 | 224 | 5.0 | 13.0 | 0.00 | 0.00 | 0.00 | 77 | 1019.2 |
| 20260901101803 | 66 | 222 | 4.0 | 10.0 | 0.00 | 0.00 | 0.00 | 77 | 1019.3 |
| 20260901100903 | 66 | 225 | 5.0 | 15.0 | 0.00 | 0.00 | 0.00 | 77 | 1019.2 |
| 20260901100003 | 66 | 233 | 4.0 | 10.0 | 0.00 | 0.00 | 0.00 | 77 | 1019.2 |
| 20260901095403 | 66 | 240 | 5.0 | 10.0 | 0.00 | 0.00 | 0.00 | 77 | 1019.1 |
| 20260901094503 | 66 | 229 | 5.0 | 10.0 | 0.00 | 0.00 | 0.00 | 78 | 1019.2 |
| 20260901093603 | 66 | 237 | 5.0 | 14.0 | 0.00 | 0.00 | 0.00 | 77 | 1019.2 |
| 20260901092703 | 66 | 238 | 6.0 | 12.0 | 0.00 | 0.00 | 0.00 | 76 | 1019.3 |
| 20260901091803 | 66 | 243 | 5.0 | 10.0 | 0.00 | 0.00 | 0.00 | 77 | 1019.2 |
| 20260901090903 | 66 | 243 | 5.0 | 14.0 | 0.00 | 0.00 | 0.00 | 79 | 1019.0 |
| 20260901090003 | 65 | 248 | 6.0 | 12.0 | 0.00 | 0.00 | 0.00 | 79 | 1019.0 |
| 20260901085403 | 65 | 250 | 6.0 | 13.0 | 0.00 | 0.00 | 0.00 | 80 | 1019.1 |
| 20260901084503 | 65 | 241 | 5.0 | 11.0 | 0.00 | 0.00 | 0.00 | 82 | 1019.0 |
| 20260901083603 | 64 | 204 | 3.0 | 7.0 | 0.00 | 0.00 | 0.00 | 85 | 1018.8 |
| 20260901082703 | 63 | 229 | 3.0 | 8.0 | 0.00 | 0.00 | 0.00 | 86 | 1018.7 |
| 20260901081803 | 62 | 236 | 3.0 | 9.0 | 0.00 | 0.00 | 0.00 | 87 | 1018.8 |
| 20260901080903 | 61 | 232 | 3.0 | 8.0 | 0.00 | 0.00 | 0.00 | 88 | 1018.9 |
| 20260901080003 | 60 | 240 | 3.0 | 7.0 | 0.00 | 0.00 | 0.00 | 88 | 1019.0 |
| 20260901075403 | 60 | 244 | 3.0 | 7.0 | 0.00 | 0.00 | 0.00 | 88 | 1019.1 |
| 20260901074503 | 59 | 247 | 4.0 | 8.0 | 0.00 | 0.00 | 0.00 | 88 | 1019.1 |
| 20260901073603 | 59 | 254 | 3.0 | 8.0 | 0.00 | 0.00 | 0.00 | 88 | 1019.1 |
| 20260901072703 | 59 | 256 | 3.0 | 8.0 | 0.00 | 0.00 | 0.00 | 88 | 1019.2 |
| 20260901071804 | 59 | 245 | 3.0 | 6.0 | 0.00 | 0.00 | 0.00 | 89 | 1019.3 |
| 20260901070903 | 59 | 241 | 3.0 | 5.0 | 0.00 | 0.00 | 0.00 | 89 | 1019.3 |
| 20260901070003 | 59 | 232 | 2.0 | 5.0 | 0.00 | 0.00 | 0.00 | 90 | 1019.2 |
| 20260901065403 | 58 | 248 | 2.0 | 5.0 | 0.00 | 0.00 | 0.00 | 89 | 1019.3 |
| 20260901064503 | 58 | 238 | 3.0 | 6.0 | 0.00 | 0.00 | 0.00 | 89 | 1019.2 |
| 20260901063603 | 58 | 234 | 3.0 | 6.0 | 0.00 | 0.00 | 0.00 | 89 | 1019.3 |
| 20260901062703 | 57 | 246 | 4.0 | 7.0 | 0.00 | 0.00 | 0.00 | 89 | 1019.2 |
| 20260901061803 | 57 | 241 | 4.0 | 9.0 | 0.00 | 0.00 | 0.00 | 89 | 1019.4 |
| 20260901060903 | 57 | 236 | 3.0 | 6.0 | 0.00 | 0.00 | 0.00 | 88 | 1019.2 |
| 20260901060003 | 57 | 245 | 3.0 | 8.0 | 0.00 | 0.00 | 0.00 | 88 | 1019.3 |
| 20260901055403 | 57 | 252 | 4.0 | 8.0 | 0.00 | 0.00 | 0.00 | 88 | 1019.2 |
| 20260901054503 | 57 | 255 | 3.0 | 7.0 | 0.00 | 0.00 | 0.00 | 88 | 1019.1 |
| 20260901053603 | 57 | 254 | 4.0 | 9.0 | 0.00 | 0.00 | 0.00 | 88 | 1019.1 |
| 20260901052703 | 57 | 257 | 4.0 | 9.0 | 0.00 | 0.00 | 0.00 | 88 | 1019.1 |
| 20260901051803 | 57 | 260 | 4.0 | 9.0 | 0.00 | 0.00 | 0.00 | 88 | 1019.2 |
| 20260901050903 | 57 | 256 | 4.0 | 9.0 | 0.00 | 0.00 | 0.00 | 88 | 1019.2 |
| 20260901050003 | 57 | 257 | 5.0 | 10.0 | 0.00 | 0.00 | 0.00 | 88 | 1019.2 |
| 20260901045403 | 57 | 259 | 4.0 | 9.0 | 0.00 | 0.00 | 0.00 | 88 | 1019.1 |
| 20260901044505 | 57 | 253 | 3.0 | 6.0 | 0.00 | 0.00 | 0.00 | 88 | 1019.1 |
| 20260901043603 | 57 | 253 | 3.0 | 7.0 | 0.00 | 0.00 | 0.00 | 88 | 1019.0 |
| 20260901042703 | 57 | 256 | 3.0 | 8.0 | 0.00 | 0.00 | 0.00 | 88 | 1018.9 |
| 20260901041803 | 57 | 259 | 3.0 | 5.0 | 0.00 | 0.00 | 0.00 | 87 | 1018.8 |
| 20260901040903 | 57 | 252 | 3.0 | 6.0 | 0.00 | 0.00 | 0.00 | 88 | 1018.9 |
| 20260901040003 | 57 | 246 | 4.0 | 8.0 | 0.00 | 0.00 | 0.00 | 87 | 1018.8 |
| 20260901035403 | 57 | 251 | 4.0 | 8.0 | 0.00 | 0.00 | 0.00 | 87 | 1018.8 |
| 20260901034503 | 57 | 245 | 3.0 | 7.0 | 0.00 | 0.00 | 0.00 | 87 | 1018.8 |
| 20260901033603 | 57 | 255 | 5.0 | 9.0 | 0.00 | 0.00 | 0.00 | 87 | 1018.8 |
| 20260901032703 | 57 | 256 | 5.0 | 8.0 | 0.00 | 0.00 | 0.00 | 87 | 1018.9 |
| 20260901031803 | 57 | 255 | 4.0 | 8.0 | 0.00 | 0.00 | 0.00 | 87 | 1018.9 |
| 20260901030903 | 57 | 258 | 4.0 | 8.0 | 0.00 | 0.00 | 0.00 | 87 | 1018.9 |
| 20260901030003 | 57 | 256 | 4.0 | 7.0 | 0.00 | 0.00 | 0.00 | 87 | 1018.9 |
| 20260901025403 | 57 | 254 | 4.0 | 7.0 | 0.00 | 0.00 | 0.00 | 87 | 1018.9 |
| 20260901024503 | 57 | 253 | 4.0 | 8.0 | 0.00 | 0.00 | 0.00 | 87 | 1019.0 |
| 20260901023603 | 57 | 255 | 4.0 | 8.0 | 0.00 | 0.00 | 0.00 | 86 | 1019.0 |
| 20260901022703 | 57 | 257 | 4.0 | 7.0 | 0.00 | 0.00 | 0.00 | 86 | 1019.0 |
| 20260901021803 | 57 | 254 | 4.0 | 8.0 | 0.00 | 0.00 | 0.00 | 86 | 1019.0 |
| 20260901020903 | 57 | 248 | 4.0 | 8.0 | 0.00 | 0.00 | 0.00 | 86 | 1019.1 |
| 20260901020003 | 57 | 250 | 4.0 | 6.0 | 0.00 | 0.01 | 0.00 | 86 | 1019.1 |
| 20260901015403 | 57 | 252 | 4.0 | 9.0 | 0.00 | 0.01 | 0.00 | 86 | 1019.1 |
| 20260901014503 | 57 | 252 | 4.0 | 9.0 | 0.00 | 0.01 | 0.00 | 86 | 1019.2 |
| 20260901013603 | 57 | 252 | 4.0 | 8.0 | 0.00 | 0.02 | 0.00 | 85 | 1019.3 |
| 20260901012703 | 57 | 248 | 4.0 | 8.0 | 0.00 | 0.03 | 0.00 | 85 | 1019.3 |
| 20260901011803 | 57 | 249 | 3.0 | 7.0 | 0.00 | 0.03 | 0.00 | 85 | 1019.4 |
| 20260901010903 | 57 | 251 | 4.0 | 8.0 | 0.00 | 0.03 | 0.00 | 85 | 1019.4 |
| 20260901010003 | 57 | 256 | 4.0 | 7.0 | 0.00 | 0.03 | 0.00 | 85 | 1019.3 |
| 20260901005403 | 57 | 255 | 3.0 | 7.0 | 0.00 | 0.03 | 0.00 | 84 | 1019.4 |
| 20260901004503 | 57 | 255 | 4.0 | 7.0 | 0.00 | 0.03 | 0.00 | 84 | 1019.4 |
| 20260901003603 | 57 | 255 | 4.0 | 8.0 | 0.00 | 0.03 | 0.00 | 84 | 1019.4 |
| 20260901002703 | 57 | 253 | 4.0 | 9.0 | 0.00 | 0.03 | 0.00 | 84 | 1019.5 |
| 20260901001803 | 57 | 247 | 2.0 | 7.0 | 0.00 | 0.03 | 0.00 | 83 | 1019.6 |
| 20260901000903 | 57 | 260 | 2.0 | 6.0 | 0.00 | 0.03 | 0.00 | 83 | 1019.5 |
| 20260901000003 | 57 | 264 | 2.0 | 6.0 | 0.00 | 0.03 | 0.00 | 83 | 1019.5 |
| 20260831235403 | 57 | 263 | 3.0 | 6.0 | 0.00 | 0.03 | 0.00 | 83 | 1019.6 |
| 20260831234503 | 57 | 262 | 4.0 | 8.0 | 0.00 | 0.03 | 0.00 | 83 | 1019.6 |
| 20260831233603 | 57 | 254 | 4.0 | 8.0 | 0.00 | 0.03 | 0.00 | 83 | 1019.7 |
| 20260831232703 | 57 | 258 | 4.0 | 9.0 | 0.00 | 0.03 | 0.00 | 82 | 1019.8 |
| 20260831231803 | 57 | 258 | 4.0 | 7.0 | 0.00 | 0.03 | 0.00 | 82 | 1019.9 |
| 20260831230903 | 57 | 257 | 3.0 | 6.0 | 0.00 | 0.03 | 0.00 | 82 | 1019.9 |
| 20260831230003 | 57 | 262 | 4.0 | 10.0 | 0.00 | 0.03 | 0.00 | 82 | 1019.9 |
| 20260831225403 | 57 | 262 | 4.0 | 10.0 | 0.00 | 0.03 | 0.03 | 81 | 1020.0 |